Weather History for ESSB - December, 2013

Change the Weather History Date:

Monday, December 23, 2013

  Actual Average Record
Temperature  
Mean Temperature 40 °F -  
Max Temperature 42 °F 32 °F 46 °F (2015)
Min Temperature 37 °F 24 °F -7 °F (2001)
Degree Days  
Heating Degree Days 26    
Moisture  
Dew Point 33 °F    
Average Humidity 73    
Maximum Humidity 87    
Minimum Humidity 59    
Precipitation  
Precipitation 0.00 in - - ()
Sea Level Pressure  
Sea Level Pressure 29.41 in    
Wind  
Wind Speed 12 mph ()    
Max Wind Speed 20 mph    
Max Gust Speed 33 mph    
Visibility 8.3 miles    
Events Rain    
Averages and records for this station are not official NWS values.
T = Trace of Precipitation, MM = Missing Value Source: Averaged Metar Reports

Daily Weather History Graph

Daily Weather History Graph

Search for Another Location

Airport or City:

Trip Planner

Search our weather history database for the weather conditions in past years. The results will help you decide how hot, cold, wet, or windy it might be!

Date:

Astronomy

Dec. 23, 2013 Rise Set
Actual Time 8:45 AM CET 2:49 PM CET
Civil Twilight 7:49 AM CET 3:45 PM CET
Nautical Twilight 6:53 AM CET 4:40 PM CET
Astronomical Twilight 6:03 AM CET 5:31 PM CET
Moon 10:09 PM CET (12/23) 10:40 AM CET (12/23)
Length of Visible Light 7h 56m
Length of Day
6h 04m
Waning Gibbous, 70% of the Moon is Illuminated
Dec 23
Waning Gibbous
Dec 25
Last Quarter
Jan 1
New
Jan 8
First Quarter
Jan 16
Full

Hourly Weather History & Observations

Time (CET) Temp. Windchill Dew Point Humidity Pressure Visibility Wind Dir Wind Speed Gust Speed Precip Events Conditions
12:00 AM 41 °F - 37 °F 79% 29.36 in 14 mi South 11.2 mph - - Rain Drizzle
12:20 AM 41.0 °F 34.3 °F 37.4 °F 87% 29.33 in 6.2 mi SSW 11.5 mph - N/A   Mostly Cloudy
12:50 AM 41.0 °F 34.7 °F 35.6 °F 81% 29.33 in 6.2 mi SSW 10.4 mph - N/A   Partly Cloudy
1:00 AM 40 °F - 36 °F 82% 29.34 in 28 mi SSW 8.9 mph - -   Scattered Clouds
1:20 AM 41.0 °F 34.3 °F 35.6 °F 81% 29.33 in 6.2 mi SW 11.5 mph - N/A   Mostly Cloudy
1:50 AM 41.0 °F 34.7 °F 35.6 °F 81% 29.33 in 6.2 mi SW 10.4 mph - N/A   Partly Cloudy
2:00 AM 40 °F - 36 °F 80% 29.34 in 31 mi SSW 6.7 mph - -  
2:20 AM 41.0 °F 34.3 °F 35.6 °F 81% 29.33 in 6.2 mi SW 11.5 mph - N/A   Partly Cloudy
2:50 AM 39.2 °F 32.0 °F 35.6 °F 87% 29.33 in 6.2 mi SW 11.5 mph - N/A   Partly Cloudy
3:00 AM 40 °F - 35 °F 76% 29.34 in 31 mi SW 8.9 mph - -   Scattered Clouds
3:20 AM 39.2 °F 32.0 °F 35.6 °F 87% 29.33 in 6.2 mi SW 11.5 mph - N/A   Unknown
3:50 AM 39.2 °F 31.2 °F 33.8 °F 81% 29.33 in 6.2 mi SW 13.8 mph - N/A   Partly Cloudy
4:00 AM 40 °F - 34 °F 72% 29.33 in 31 mi SW 11.2 mph - -  
4:20 AM 39.2 °F 31.6 °F 33.8 °F 81% 29.33 in 6.2 mi SW 12.7 mph - N/A   Unknown
4:50 AM 39.2 °F 31.6 °F 33.8 °F 81% 29.33 in 6.2 mi SW 12.7 mph - N/A   Mostly Cloudy
5:00 AM 39 °F - 34 °F 74% 29.33 in 28 mi SSW 11.2 mph - -   Scattered Clouds
5:20 AM 39.2 °F 32.0 °F 33.8 °F 81% 29.30 in 6.2 mi SSW 11.5 mph - N/A   Mostly Cloudy
5:50 AM 39.2 °F 31.2 °F 33.8 °F 81% 29.30 in 6.2 mi SW 13.8 mph - N/A   Mostly Cloudy
6:00 AM 40 °F - 34 °F 70% 29.32 in 14 mi SW 11.2 mph - - Rain Light Rain Showers
6:20 AM 41.0 °F 33.5 °F 33.8 °F 76% 29.30 in 6.2 mi SW 13.8 mph - N/A   Mostly Cloudy
6:50 AM 41.0 °F 32.2 °F 33.8 °F 76% 29.30 in 6.2 mi SW 18.4 mph - N/A Rain Light Rain
7:00 AM 40 °F - 35 °F 74% 29.32 in 9 mi SW 15.7 mph - - Rain Light Rain
7:20 AM 41.0 °F 32.8 °F 33.8 °F 76% 29.30 in 6.2 mi SW 16.1 mph - N/A   Mostly Cloudy
7:50 AM 41.0 °F 32.5 °F 33.8 °F 76% 29.30 in 6.2 mi WSW 17.3 mph - N/A   Mostly Cloudy
8:00 AM 41 °F - 33 °F 66% 29.33 in 25 mi WSW 13.4 mph - - Rain Drizzle
8:20 AM 41.0 °F 32.2 °F 33.8 °F 76% 29.33 in 6.2 mi WSW 18.4 mph - N/A   Mostly Cloudy
8:50 AM 41.0 °F 33.1 °F 33.8 °F 76% 29.33 in 6.2 mi WSW 15.0 mph - N/A   Mostly Cloudy
9:00 AM 41 °F - 33 °F 62% 29.34 in 25 mi SW 15.7 mph - -   Scattered Clouds
9:20 AM 41.0 °F 31.9 °F 33.8 °F 76% 29.33 in 6.2 mi SW 19.6 mph 31.1 mph N/A   Mostly Cloudy
9:50 AM 41.0 °F 31.9 °F 32.0 °F 70% 29.36 in 6.2 mi WSW 19.6 mph 33.4 mph N/A   Scattered Clouds
10:00 AM 41 °F - 32 °F 62% 29.37 in 22 mi WSW 17.9 mph - -   Scattered Clouds
10:20 AM 41.0 °F 32.2 °F 32.0 °F 70% 29.36 in 6.2 mi WSW 18.4 mph - N/A   Scattered Clouds
10:50 AM 41.0 °F 32.8 °F 32.0 °F 70% 29.36 in 6.2 mi WSW 16.1 mph 27.6 mph N/A   Partly Cloudy
11:00 AM 42 °F - 33 °F 59% 29.37 in 19 mi WSW 15.7 mph - -   Scattered Clouds
11:20 AM 42.8 °F 34.5 °F 33.8 °F 70% 29.36 in 6.2 mi WSW 18.4 mph - N/A   Mostly Cloudy
11:50 AM 41.0 °F 32.2 °F 33.8 °F 76% 29.39 in 6.2 mi WSW 18.4 mph - N/A   Mostly Cloudy
12:00 PM 42 °F - 33 °F 60% 29.39 in 22 mi WSW 15.7 mph - -   Mostly Cloudy
12:20 PM 41.0 °F 32.5 °F 33.8 °F 76% 29.39 in 6.2 mi WSW 17.3 mph - N/A   Mostly Cloudy
12:50 PM 41.0 °F 32.5 °F 32.0 °F 70% 29.39 in 6.2 mi WSW 17.3 mph - N/A   Mostly Cloudy
1:00 PM 42 °F - 33 °F 60% 29.41 in 25 mi WSW 13.4 mph - -   Overcast
1:20 PM 41.0 °F 32.2 °F 32.0 °F 70% 29.42 in 6.2 mi WSW 18.4 mph - N/A   Mostly Cloudy
1:50 PM 41.0 °F 33.5 °F 32.0 °F 70% 29.42 in 6.2 mi WSW 13.8 mph - N/A   Mostly Cloudy
2:00 PM 42 °F - 33 °F 59% 29.43 in 25 mi WSW 11.2 mph - -   Overcast
2:20 PM 42.8 °F 35.8 °F 32.0 °F 66% 29.42 in 6.2 mi WSW 13.8 mph - N/A   Mostly Cloudy
2:50 PM 42.8 °F 35.4 °F 32.0 °F 66% 29.42 in 6.2 mi WSW 15.0 mph 27.6 mph N/A   Mostly Cloudy
3:00 PM 42 °F - 33 °F 60% 29.45 in 22 mi WSW 15.7 mph - -   Scattered Clouds
3:20 PM 42.8 °F 34.8 °F 32.0 °F 66% 29.44 in 6.2 mi WSW 17.3 mph - N/A   Mostly Cloudy
3:50 PM 42.8 °F 34.5 °F 32.0 °F 66% 29.44 in 6.2 mi WSW 18.4 mph - N/A   Mostly Cloudy
4:00 PM 42 °F - 32 °F 59% 29.48 in 19 mi WSW 15.7 mph - -   Scattered Clouds
4:20 PM 42.8 °F 34.3 °F 32.0 °F 66% 29.47 in 6.2 mi WSW 19.6 mph - N/A   Mostly Cloudy
4:50 PM 41.0 °F 32.5 °F 32.0 °F 70% 29.47 in 6.2 mi WSW 17.3 mph - N/A   Partly Cloudy
5:00 PM 40 °F - 32 °F 63% 29.50 in 15 mi WSW 15.7 mph - -   Scattered Clouds
5:20 PM 41.0 °F 32.5 °F 32.0 °F 70% 29.50 in - WSW 17.3 mph - N/A   Clear
5:50 PM 41.0 °F 32.5 °F 32.0 °F 70% 29.50 in - WSW 17.3 mph - N/A   Clear
6:00 PM 40 °F - 32 °F 63% 29.53 in 16 mi WSW 13.4 mph - -  
6:20 PM 39.2 °F 30.8 °F 32.0 °F 75% 29.53 in - WSW 15.0 mph - N/A   Clear
6:50 PM 39.2 °F 30.8 °F 32.0 °F 75% 29.53 in - WSW 15.0 mph - N/A   Clear
7:00 PM 40 °F - 32 °F 65% 29.55 in 14 mi WSW 11.2 mph - -  
7:20 PM 39.2 °F 30.5 °F 32.0 °F 75% 29.53 in - WSW 16.1 mph - N/A   Clear
7:50 PM 39.2 °F 31.2 °F 32.0 °F 75% 29.56 in - WSW 13.8 mph - N/A   Clear
8:00 PM 39 °F - 32 °F 69% 29.57 in 14 mi SW 13.4 mph - -  
8:20 PM 39.2 °F 31.6 °F 32.0 °F 75% 29.56 in - SW 12.7 mph - N/A   Clear
8:50 PM 39.2 °F 32.0 °F 32.0 °F 75% 29.56 in - SW 11.5 mph - N/A   Clear
9:00 PM 38 °F - 32 °F 72% 29.59 in 15 mi SW 8.9 mph - -  
9:20 PM 37.4 °F 30.3 °F 32.0 °F 81% 29.59 in - SW 10.4 mph - N/A   Clear
9:50 PM 37.4 °F 30.3 °F 32.0 °F 81% 29.59 in - SW 10.4 mph - N/A   Clear
10:00 PM 37 °F - 32 °F 75% 29.60 in 11 mi SW 8.9 mph - -  
11:00 PM 37 °F - 32 °F 76% 29.61 in 11 mi SSW 8.9 mph - -